DW1231 Weather Reports


Display with metric or nautical units.
time (UTC)temp
F
wind
direction
speed
MPH
gust
MPH
rain 1hr
in
rain 24hr
in
rain mn
in
humidity
%
barometer
mb
20260507100925 52 129 0.0 1.0 0.00 0.13 0.00 92 1021.8
20260507095933 52 129 1.0 1.0 0.00 0.13 0.00 92 1021.5
20260507094945 52 182 1.0 2.0 0.00 0.13 0.00 91 1021.4
20260507093932 52 66 2.0 2.0 0.00 0.13 0.00 91 1021.6
20260507092924 52 62 1.0 2.0 0.00 0.13 0.00 92 1021.5
20260507091933 52 118 1.0 2.0 0.00 0.13 0.00 91 1021.5
20260507090924 52 139 2.0 2.0 0.00 0.13 0.00 91 1021.6
20260507085933 52 35 2.0 2.0 0.00 0.13 0.00 91 1021.4
20260507084924 52 180 2.0 2.0 0.00 0.13 0.00 91 1021.3
20260507083933 53 182 2.0 2.0 0.00 0.13 0.00 90 1021.4
20260507082924 53 103 1.0 1.0 0.00 0.13 0.00 90 1021.4
20260507081933 53 44 2.0 2.0 0.00 0.13 0.00 90 1021.1
20260507080924 53 111 2.0 2.0 0.00 0.13 0.00 90 1021.1
20260507075932 53 58 3.0 3.0 0.00 0.13 0.00 89 1021.2
20260507074925 53 90 2.0 2.0 0.00 0.13 0.00 89 1021.0
20260507073933 53 106 3.0 3.0 0.00 0.13 0.00 89 1020.9
20260507072925 54 27 2.0 3.0 0.00 0.13 0.00 88 1021.1
20260507071953 54 23 3.0 3.0 0.00 0.13 0.00 88 1021.2
20260507070924 54 107 1.0 2.0 0.00 0.13 0.00 88 1021.1
20260507065933 54 92 1.0 2.0 0.00 0.13 0.00 87 1021.1
20260507064924 54 92 1.0 2.0 0.00 0.13 0.00 87 1021.1
20260507063933 55 80 1.0 1.0 0.00 0.13 0.00 86 1021.0
20260507062925 55 87 2.0 2.0 0.00 0.13 0.00 86 1021.0
20260507061933 55 89 1.0 1.0 0.00 0.13 0.00 85 1020.9
20260507060909 55 75 2.0 2.0 0.00 0.13 0.00 85 1020.8
20260507055916 55 76 1.0 2.0 0.00 0.13 0.00 85 1020.7
20260507054908 56 66 2.0 3.0 0.00 0.13 0.00 85 1020.7
20260507053916 56 76 2.0 3.0 0.00 0.13 0.00 84 1020.8
20260507052949 57 71 2.0 3.0 0.00 0.13 0.00 83 1020.7
20260507051936 57 96 2.0 5.0 0.00 0.13 0.00 82 1020.6
20260507050909 57 74 3.0 5.0 0.00 0.13 0.00 82 1020.7
20260507045937 58 74 3.0 5.0 0.00 0.13 0.13 81 1020.9
20260507044929 58 80 3.0 5.0 0.00 0.13 0.13 81 1021.0
20260507043916 58 73 3.0 3.0 0.00 0.13 0.13 80 1021.0
20260507042908 58 0.0 0.0 0.00 0.13 0.13 80 1021.0
20260507041916 58 64 3.0 3.0 0.00 0.13 0.13 80 1021.2
20260507040909 58 69 2.0 2.0 0.00 0.13 0.13 80 1021.2
20260507035917 59 38 2.0 3.0 0.00 0.13 0.13 79 1021.3
20260507034909 59 357 6.0 7.0 0.00 0.13 0.13 79 1021.3
20260507033917 59 4 5.0 6.0 0.00 0.13 0.13 79 1021.3
20260507032908 59 23 6.0 7.0 0.00 0.13 0.13 79 1021.1
20260507031932 59 58 6.0 7.0 0.00 0.13 0.13 79 1021.1
20260507030928 59 348 6.0 7.0 0.00 0.13 0.13 79 1021.0
20260507025917 59 22 7.0 10.0 0.00 0.13 0.13 79 1020.8
20260507024908 59 19 4.0 5.0 0.00 0.13 0.13 80 1020.7
20260507023917 59 98 2.0 2.0 0.00 0.13 0.13 80 1020.4
20260507022909 59 102 3.0 3.0 0.00 0.13 0.13 80 1020.2
20260507021917 59 73 3.0 3.0 0.00 0.13 0.13 80 1019.9
20260507020909 59 76 2.0 3.0 0.00 0.13 0.13 80 1020.0
20260507015917 59 103 1.0 1.0 0.00 0.13 0.13 80 1019.6
20260507014909 59 38 3.0 3.0 0.00 0.13 0.13 79 1019.3
20260507013917 59 84 3.0 3.0 0.00 0.13 0.13 80 1019.2
20260507012909 59 48 3.0 3.0 0.00 0.13 0.13 80 1019.1
20260507011937 59 66 2.0 3.0 0.00 0.13 0.13 80 1018.7
20260507010909 59 34 3.0 3.0 0.00 0.13 0.13 80 1018.8
20260507005917 59 32 2.0 5.0 0.00 0.13 0.13 80 1018.6
20260507004908 59 5 3.0 6.0 0.00 0.13 0.13 80 1018.6
20260507003922 59 50 3.0 6.0 0.00 0.13 0.13 80 1018.6
20260507002929 59 109 1.0 1.0 0.00 0.13 0.13 79 1018.3
20260507001917 60 349 8.0 10.0 0.00 0.13 0.13 79 1018.2
20260507000909 60 85 4.0 6.0 0.00 0.13 0.13 78 1018.1
20260506235917 60 23 7.0 9.0 0.00 0.13 0.13 78 1018.0
20260506234909 60 62 5.0 8.0 0.00 0.13 0.13 78 1018.0
20260506233938 60 76 3.0 3.0 0.00 0.13 0.13 79 1017.8
20260506232909 60 57 6.0 8.0 0.00 0.13 0.13 79 1017.8
20260506231918 60 48 4.0 7.0 0.00 0.13 0.13 78 1017.5
20260506230909 59 35 2.0 2.0 0.00 0.13 0.13 78 1017.7
20260506225917 60 31 5.0 7.0 0.00 0.13 0.13 77 1017.6
20260506224909 60 18 8.0 11.0 0.00 0.13 0.13 76 1017.7
20260506223901 60 33 3.0 6.0 0.00 0.13 0.13 77 1017.6
20260506222833 59 25 5.0 7.0 0.00 0.13 0.13 77 1017.7
20260506221833 60 105 2.0 2.0 0.00 0.13 0.13 77 1017.9
20260506220833 59 85 3.0 3.0 0.00 0.13 0.13 77 1017.2
20260506215832 60 10 5.0 6.0 0.00 0.13 0.13 76 1017.3
20260506214845 60 41 7.0 9.0 0.00 0.13 0.13 75 1017.3
20260506213814 60 31 5.0 7.0 0.00 0.13 0.13 75 1017.5
20260506212826 59 23 6.0 8.0 0.00 0.13 0.13 76 1017.4
20260506211813 59 23 5.0 6.0 0.00 0.13 0.13 77 1017.3
20260506210825 59 22 3.0 6.0 0.00 0.13 0.13 76 1017.5
20260506205814 60 42 5.0 6.0 0.00 0.13 0.13 74 1017.6
20260506204805 60 107 5.0 7.0 0.00 0.13 0.13 74 1017.5
20260506203813 59 246 4.0 6.0 0.00 0.13 0.13 76 1017.7
20260506202805 59 308 5.0 7.0 0.00 0.13 0.13 75 1018.1
20260506201853 59 10 3.0 3.0 0.00 0.13 0.13 75 1017.9
20260506200805 59 268 5.0 5.0 0.00 0.13 0.13 76 1017.9
20260506195813 59 115 4.0 6.0 0.00 0.13 0.13 78 1018.1
20260506194805 58 86 1.0 2.0 0.00 0.13 0.13 79 1018.2
20260506193813 57 58 3.0 3.0 0.00 0.13 0.13 79 1018.5
20260506192805 58 69 3.0 5.0 0.00 0.13 0.13 79 1018.3
20260506191814 57 127 1.0 1.0 0.00 0.13 0.13 79 1018.4
20260506190806 57 104 3.0 3.0 0.00 0.13 0.13 79 1018.8
20260506185813 57 3 6.0 8.0 0.00 0.13 0.13 79 1018.3
20260506184826 57 173 5.0 8.0 0.00 0.13 0.13 81 1017.9
20260506183813 56 8 5.0 7.0 0.00 0.13 0.13 81 1017.3
20260506182805 56 331 4.0 8.0 0.00 0.13 0.13 82 1017.3
20260506181834 56 331 9.0 11.0 0.00 0.13 0.13 82 1016.7
20260506180806 55 40 5.0 7.0 0.00 0.13 0.13 84 1016.9
20260506175814 55 80 3.0 3.0 0.00 0.13 0.13 86 1017.5
20260506174806 55 65 3.0 3.0 0.00 0.13 0.13 85 1017.5
20260506173814 55 33 7.0 10.0 0.00 0.13 0.13 86 1017.5
20260506172805 54 309 3.0 3.0 0.00 0.13 0.13 86 1017.7
20260506171814 54 335 9.0 10.0 0.00 0.13 0.13 86 1017.9
20260506170805 54 252 11.0 13.0 0.00 0.13 0.13 86 1017.9
20260506165833 54 334 6.0 8.0 0.00 0.13 0.13 87 1018.2
20260506164805 54 315 7.0 9.0 0.00 0.13 0.13 86 1018.6
20260506163814 54 120 5.0 8.0 0.13 0.13 0.13 87 1018.7
20260506162826 54 281 4.0 5.0 0.13 0.13 0.13 88 1018.9
20260506161733 54 289 5.0 7.0 0.13 0.13 0.13 89 1018.5
20260506160733 53 68 7.0 10.0 0.13 0.13 0.13 90 1017.5
20260506155726 52 4 8.0 11.0 0.13 0.13 0.13 90 1017.3
20260506154718 53 42 4.0 5.0 0.13 0.13 0.13 85 1019.3
20260506153725 54 139 4.0 5.0 0.00 0.00 0.00 81 1020.2
20260506152718 54 241 5.0 6.0 0.00 0.00 0.00 79 1019.5
20260506151710 54 300 7.0 9.0 0.00 0.00 0.00 79 1018.4
20260506150718 54 258 6.0 8.0 0.00 0.00 0.00 80 1017.4
20260506145710 54 319 7.0 9.0 0.00 0.00 0.00 79 1018.4
20260506144718 54 261 5.0 6.0 0.00 0.00 0.00 79 1018.4
20260506143750 54 280 5.0 6.0 0.00 0.00 0.00 80 1018.5
20260506142738 54 17 5.0 6.0 0.00 0.00 0.00 80 1018.1
20260506141710 53 106 5.0 6.0 0.00 0.00 0.00 80 1017.8
20260506140738 53 289 6.0 8.0 0.00 0.00 0.00 81 1017.8
20260506135710 53 298 9.0 13.0 0.00 0.00 0.00 80 1017.5
20260506134718 53 296 5.0 6.0 0.00 0.00 0.00 80 1017.4
20260506133709 53 38 5.0 6.0 0.00 0.00 0.00 80 1017.3
20260506132701 53 287 5.0 10.0 0.00 0.00 0.00 81 1017.4
20260506131632 53 319 9.0 10.0 0.00 0.00 0.00 81 1016.9
20260506130630 53 298 9.0 11.0 0.00 0.00 0.00 82 1017.0
20260506125622 53 15 6.0 8.0 0.00 0.00 0.00 83 1017.1
20260506124614 53 316 3.0 5.0 0.00 0.00 0.00 84 1016.9
20260506123549 53 314 8.0 10.0 0.00 0.00 0.00 83 1016.6
20260506122559 53 325 5.0 7.0 0.00 0.00 0.00 84 1016.6
20260506121550 53 16 7.0 9.0 0.00 0.00 0.00 83 1016.2
20260506120558 53 349 8.0 11.0 0.00 0.00 0.00 82 1016.6
20260506115533 53 275 8.0 9.0 0.00 0.00 0.00 81 1016.3
20260506114546 54 316 12.0 14.0 0.00 0.00 0.00 80 1016.1
20260506113517 54 351 4.0 5.0 0.00 0.00 0.00 79 1015.9
20260506112510 54 138 5.0 7.0 0.00 0.00 0.00 79 1016.0
20260506111502 55 321 9.0 11.0 0.00 0.00 0.00 77 1015.5
20260506110454 55 316 8.0 10.0 0.00 0.00 0.00 75 1015.4
20260506105521 55 285 4.0 6.0 0.00 0.00 0.00 75 1015.3
20260506104454 55 153 3.0 5.0 0.00 0.00 0.00 74 1015.1
20260506103522 55 352 6.0 8.0 0.00 0.00 0.00 74 1014.9
20260506102454 55 344 5.0 7.0 0.00 0.00 0.00 74 1014.8